Regional Weather Roundup
Issued by NWS Sterling, VA

Home | Current Version | Previous Version | Graphics & Text | Print | Product List | Glossary On
Versions: 1 2 3 4 5 6 7 8 9 10 11 12 13 14 15 16 17 18 19 20 21 22 23 24 25 26 27 28
000
ASUS41 KLWX 030910
RWRLWX

REGIONAL WEATHER ROUNDUP
NATIONAL WEATHER SERVICE BALTIMORE MD/WASHINGTON DC
500 AM EDT TUE MAY 03 2016

Note: "FAIR" indicates few or no clouds below 12,000 feet
with no significant weather and/or obstructions to visibility.
 TC=TEMPERATURE CELSIUS

 * =Non NWS site. Station does not report precipitation (e.g. rain,
    snow, etc.), thunder, or fog.

DCZ001-MDZ009-015-VAZ040>042-051-053>054-031000-
WASHINGTON METRO

CITY           SKY/WX    TMP DP  RH WIND       PRES   REMARKS
WASHINGTON NAT LGT RAIN  62  61  96 NE3       29.80S FOG
DULLES         CLOUDY    62  61  96 SW5       29.80S
ANDREWS AFB    LGT RAIN  63  61  94 N3        29.79S FOG
FT BELVOIR     FAIR      61  61 100 CALM      29.80R FOG
QUANTICO       LGT RAIN  64  62  93 CALM      29.81R
COLLEGE PARK*  CLOUDY    61  59  94 CALM      29.79F
LEESBURG*      CLOUDY    63  63 100 CALM      29.81F FOG
MANASSAS*      CLOUDY    63  63 100 CALM      29.81S
GAITHERSBURG*  CLOUDY    61  57  88 CALM      29.83F VSB 1/2

$$

MDZ006>007-011-014-031000-
BALTIMORE METRO

CITY           SKY/WX    TMP DP  RH WIND       PRES   REMARKS
BWI AIRPORT    LGT RAIN  59  58  96 E3        29.79F FOG
MD SCIENCE CTR   N/A     60  58  92 MISG      29.79F
MARTIN STATE   RAIN      59  59 100 CALM      29.81F
ANNAPOLIS      LGT RAIN  59  58  96 N5        29.79F
FORT MEADE*    CLOUDY    59  57  94 NE3       29.82F

$$

MDZ012-015-019>023-031000-
MARYLAND EASTERN SHORE

CITY           SKY/WX    TMP DP  RH WIND       PRES   REMARKS
OCEAN CITY     LGT RAIN  58  58 100 S5        29.82F
SALISBURY      LGT RAIN  64  63  96 S7        29.81S
EASTON*        RAIN     N/A N/A N/A NW3       29.82S

$$

MDZ017>025-031000-
SOUTHERN MARYLAND

CITY           SKY/WX    TMP DP  RH WIND       PRES   REMARKS
PATUXENT RIVER CLOUDY    65  62  90 CALM      29.79S
ST INIGOES     RAIN      65  65 100 S5        29.78F
LEONARDTOWN*   CLOUDY    63  61  94 SW6       29.81S

$$

MDZ003>005-031000-
NORTH CENTRAL MARYLAND

CITY           SKY/WX    TMP DP  RH WIND       PRES   REMARKS
FREDERICK*     RAIN      61  61 100 SW5       29.82S
HAGERSTOWN APT CLOUDY    60  57  89 N6        29.81S
WESTMINSTER*   CLOUDY    59  46  63 SE3       29.80S HAZE

$$

MDZ501>502-031000-
WESTERN MARYLAND

CITY           SKY/WX    TMP DP  RH WIND       PRES   REMARKS
OAKLAND*       CLOUDY    48  48 100 CALM      29.86F FOG
CUMBERLAND*    CLOUDY    59  59 100 CALM      29.87S

$$

VAZ025>031-031000-
SHENANDOAH VALLEY

CITY           SKY/WX    TMP DP  RH WIND       PRES   REMARKS
WINCHESTER*    CLOUDY    61  61 100 SW3       29.82F FOG
FRONT ROYAL*   CLOUDY    59  59 100 S3        29.81F
LURAY*         HVY RAIN  59  59 100 S3        29.83F
NEW MARKET*    CLOUDY    59  59 100 S5        29.82F
STAUNTON*      CLOUDY   N/A N/A N/A CALM      29.85F HAZE
WAYNESBORO*    CLOUDY    59  58  95 CALM      29.84F

$$

WVZ021-048>050-054>055-031000-
EASTERN WEST VIRGINIA PANHANDLE

CITY           SKY/WX    TMP DP  RH WIND       PRES   REMARKS
MARTINSBURG    CLOUDY    60  60 100 CALM      29.80F FOG
PETERSBURG*    CLOUDY    62  57  84 CALM      29.84S

$$

VAZ036>039-050-031000-
CENTRAL FOOTHILLS

CITY           SKY/WX    TMP DP  RH WIND       PRES   REMARKS
CHARLOTTESVILL CLOUDY    62  60  93 CALM      29.81F
CULPEPER*      CLOUDY    62  62  99 CALM      29.81F FOG
ORANGE*        FAIR      63  63 100 CALM      29.82F
GORDONSVILLE*  CLOUDY    61  61 100 CALM      29.81S
WARRENTON*     CLOUDY    63  59  86 CALM      29.80S

$$

VAZ055>057-031000-
NORTH AND CENTRAL PIEDMONT

CITY           SKY/WX    TMP DP  RH WIND       PRES   REMARKS
FREDERICKSBRG* MOCLDY    63  63 100 CALM      29.80S
STAFFORD*      RAIN      62  61  96 W3        29.84S

$$

NCZ024-NYZ072-PAZ021-071-VAZ022-071-031000-
OTHER REGIONAL OBSERVATIONS

CITY           SKY/WX    TMP DP  RH WIND       PRES   REMARKS
NEW YORK CITY  RAIN      53  51  93 VRB5      29.88F FOG
PHILADELPHIA   RAIN      57  53  86 NE7       29.83F FOG
PITTSBURGH     CLOUDY    49  43  80 N6        29.87S
ROANOKE        LGT RAIN  60  59  96 CALM      29.87S
RICHMOND       LGT RAIN  64  64 100 SW6       29.81S
RALEIGH        LGT RAIN  65  63  93 CALM      29.86F

$$

ANZ530>537-031000-
MARINE OBSERVATIONS

STATION/POSITION TIME  TEMP    WIND        PRES
                       AIR SEA DIR/SP/G
                 (UTC) (F)     (DEG/KT/KT) (MB)
THOMAS PT LIGHT  0900   58 58   10/  8/  9 1010.0F
BALT KEY BRIDGE  0800   59      30/  4/  5 1009.3S
COVE POINT       0800   65     250/  8/ 10 1009.2F
LEWISETTA        0800   65 62  230/  6/  7 1009.0F
SOLOMONS ISLAND  0800   64 61  230/  4/  5   N/A
PINEY POINT      0800          250/  2/  3   N/A

$$





USA.gov is the U.S. government's official web portal to all federal, state and local government web resources and services.